Thessaloniki, Greece

6:39 PM EEST on May 28, 2017 (GMT +0300)
Makedonia

Weather History for LGTS - March, 2013

Change the Weather History Date:

Wednesday, March 6, 2013

  Actual Average Record
Temperature  
Mean Temperature 45 °F -  
Max Temperature 53 °F 60 °F 69 °F (1999)
Min Temperature 37 °F 41 °F 32 °F (2003)
Degree Days  
Heating Degree Days 20    
Moisture  
Dew Point 36 °F    
Average Humidity 68    
Maximum Humidity 87    
Minimum Humidity 36    
Precipitation  
Precipitation 0.00 in 0.06 in - ()
Sea Level Pressure  
Sea Level Pressure 30.32 in    
Wind  
Wind Speed 7 mph ()    
Max Wind Speed 12 mph    
Max Gust Speed -    
Visibility 6.2 miles    
Events      
Averages and records for this station are not official NWS values.
T = Trace of Precipitation, MM = Missing Value Source: Averaged Metar Reports

Daily Weather History Graph

Daily Weather History Graph

Search for Another Location

Airport or City:

Trip Planner

Search our weather history database for the weather conditions in past years. The results will help you decide how hot, cold, wet, or windy it might be!

Date:

Astronomy

Mar. 06, 2013 Rise Set
Actual Time 6:54 AM EET 6:25 PM EET
Civil Twilight 6:26 AM EET 6:52 PM EET
Nautical Twilight 5:55 AM EET 7:23 PM EET
Astronomical Twilight 5:23 AM EET 7:55 PM EET
Moon 2:47 AM EET (3/6) 12:45 PM EET (3/6)
Length of Visible Light 12h 25m
Length of Day
11h 30m
Waning Crescent, 33% of the Moon is Illuminated
Mar 6
Waning Crescent
Mar 11
New
Mar 19
First Quarter
Mar 27
Full
Apr 3
Last Quarter

Hourly Weather History & Observations

Time (EET) Temp. Windchill Dew Point Humidity Pressure Visibility Wind Dir Wind Speed Gust Speed Precip Events Conditions
12:20 AM 41.0 °F 38.0 °F 33.8 °F 76% 30.45 in 6.2 mi ESE 4.6 mph - N/A   Scattered Clouds
12:50 AM 39.2 °F 35.0 °F 33.8 °F 81% 30.45 in 6.2 mi ESE 5.8 mph - N/A   Scattered Clouds
1:20 AM 39.2 °F 35.0 °F 33.8 °F 81% 30.45 in 6.2 mi ESE 5.8 mph - N/A   Scattered Clouds
1:50 AM 39.2 °F 34.2 °F 33.8 °F 81% 30.42 in 6.2 mi ESE 6.9 mph - N/A   Scattered Clouds
2:00 AM 39 °F - 35 °F 78% 30.44 in 6 mi ESE 6.9 mph - -   Scattered Clouds
2:20 AM 39.2 °F 33.6 °F 33.8 °F 81% 30.42 in 6.2 mi ESE 8.1 mph - N/A   Scattered Clouds
2:50 AM 39.2 °F 33.6 °F 33.8 °F 81% 30.42 in 6.2 mi ESE 8.1 mph - N/A   Scattered Clouds
3:20 AM 37.4 °F 32.1 °F 33.8 °F 87% 30.42 in 6.2 mi ESE 6.9 mph - N/A   Scattered Clouds
3:50 AM 37.4 °F 31.4 °F 33.8 °F 87% 30.42 in 6.2 mi ESE 8.1 mph - N/A   Scattered Clouds
4:20 AM 37.4 °F 31.4 °F 33.8 °F 87% 30.39 in 6.2 mi ESE 8.1 mph - N/A   Scattered Clouds
4:50 AM 37.4 °F 31.4 °F 33.8 °F 87% 30.39 in 6.2 mi ESE 8.1 mph - N/A   Scattered Clouds
5:20 AM 37.4 °F 31.4 °F 32.0 °F 81% 30.39 in 6.2 mi ESE 8.1 mph - N/A   Scattered Clouds
5:50 AM 37.4 °F 31.4 °F 32.0 °F 81% 30.39 in 6.2 mi ESE 8.1 mph - N/A   Scattered Clouds
6:20 AM 39.2 °F 33.6 °F 32.0 °F 75% 30.39 in 6.2 mi ESE 8.1 mph - N/A   Scattered Clouds
6:50 AM 37.4 °F 32.1 °F 32.0 °F 81% 30.39 in - ESE 6.9 mph - N/A   Clear
7:20 AM 37.4 °F 32.1 °F 32.0 °F 81% 30.39 in 6.2 mi ESE 6.9 mph - N/A   Scattered Clouds
7:50 AM 39.2 °F 34.2 °F 33.8 °F 81% 30.39 in 6.2 mi ESE 6.9 mph - N/A   Mostly Cloudy
8:00 AM 39 °F - 33 °F 73% 30.40 in 6 mi ESE 6.9 mph - -   Scattered Clouds
8:20 AM 42.8 °F 38.6 °F 35.6 °F 76% 30.39 in 6.2 mi ESE 6.9 mph - N/A   Mostly Cloudy
8:50 AM 44.6 °F 40.2 °F 35.6 °F 71% 30.39 in 6.2 mi ESE 8.1 mph - N/A   Mostly Cloudy
9:20 AM 48.2 °F - 35.6 °F 62% 30.39 in 6.2 mi ESE 8.1 mph - N/A   Mostly Cloudy
9:50 AM 50.0 °F - 35.6 °F 58% 30.36 in 6.2 mi ESE 10.4 mph - N/A   Mostly Cloudy
10:20 AM 51.8 °F - 35.6 °F 54% 30.36 in 6.2 mi ESE 10.4 mph - N/A   Mostly Cloudy
10:50 AM 51.8 °F - 35.6 °F 54% 30.36 in 6.2 mi South 10.4 mph - N/A   Mostly Cloudy
11:20 AM 51.8 °F - 35.6 °F 54% 30.36 in 6.2 mi South 10.4 mph - N/A   Mostly Cloudy
11:50 AM 51.8 °F - 35.6 °F 54% 30.36 in 6.2 mi South 10.4 mph - N/A   Overcast
12:20 PM 51.8 °F - 35.6 °F 54% 30.36 in 6.2 mi South 10.4 mph - N/A   Overcast
12:50 PM 51.8 °F - 35.6 °F 54% 30.36 in 6.2 mi SSW 10.4 mph - N/A   Overcast
1:20 PM 53.6 °F - 35.6 °F 51% 30.33 in 6.2 mi SSW 10.4 mph - N/A   Overcast
1:50 PM 53.6 °F - 33.8 °F 47% 30.30 in 6.2 mi South 11.5 mph - N/A   Overcast
2:00 PM 54 °F - 35 °F 36% 30.32 in 6 mi South 11.5 mph - -   Overcast
2:20 PM 53.6 °F - 33.8 °F 47% 30.30 in 6.2 mi South 11.5 mph - N/A   Overcast
2:50 PM 53.6 °F - 35.6 °F 51% 30.30 in 6.2 mi South 11.5 mph - N/A   Mostly Cloudy
3:20 PM 53.6 °F - 35.6 °F 51% 30.27 in 6.2 mi South 11.5 mph - N/A   Mostly Cloudy
3:50 PM 53.6 °F - 37.4 °F 54% 30.27 in 6.2 mi South 11.5 mph - N/A   Mostly Cloudy
4:20 PM 51.8 °F - 37.4 °F 58% 30.24 in 6.2 mi South 11.5 mph - N/A   Mostly Cloudy
4:50 PM 51.8 °F - 37.4 °F 58% 30.24 in 6.2 mi South 11.5 mph - N/A   Mostly Cloudy
5:20 PM 51.8 °F - 37.4 °F 58% 30.24 in 6.2 mi South 11.5 mph - N/A   Mostly Cloudy
5:50 PM 51.8 °F - 39.2 °F 62% 30.24 in 6.2 mi South 8.1 mph - N/A   Mostly Cloudy
6:20 PM 50.0 °F - 39.2 °F 66% 30.21 in 6.2 mi South 8.1 mph - N/A   Mostly Cloudy
6:50 PM 50.0 °F - 39.2 °F 66% 30.21 in 6.2 mi South 6.9 mph - N/A   Mostly Cloudy
7:20 PM 50.0 °F - 39.2 °F 66% 30.21 in 6.2 mi Variable 3.5 mph - N/A   Mostly Cloudy
7:50 PM 48.2 °F - 39.2 °F 71% 30.21 in 6.2 mi Variable 3.5 mph - N/A   Mostly Cloudy
8:00 PM 48 °F - 39 °F 61% 30.21 in 6 mi 3.5 mph - -   Partly Cloudy
8:20 PM 46.4 °F 45.2 °F 39.2 °F 76% 30.21 in 6.2 mi Variable 3.5 mph - N/A   Mostly Cloudy
8:50 PM 48.2 °F - 39.2 °F 71% 30.21 in 6.2 mi Variable 3.5 mph - N/A   Mostly Cloudy
9:20 PM 46.4 °F 45.2 °F 39.2 °F 76% 30.21 in 6.2 mi Variable 3.5 mph - N/A   Mostly Cloudy
9:50 PM 46.4 °F 45.2 °F 39.2 °F 76% 30.21 in 6.2 mi Variable 3.5 mph - N/A   Mostly Cloudy
10:20 PM 46.4 °F 44.3 °F 39.2 °F 76% 30.18 in 6.2 mi ESE 4.6 mph - N/A   Mostly Cloudy
10:50 PM 46.4 °F 44.3 °F 39.2 °F 76% 30.18 in 6.2 mi ESE 4.6 mph - N/A   Mostly Cloudy
11:20 PM 46.4 °F 43.5 °F 39.2 °F 76% 30.15 in 6.2 mi East 5.8 mph - N/A   Drizzle
11:50 PM 46.4 °F 45.2 °F 39.2 °F 76% 30.15 in 6.2 mi Variable 3.5 mph - N/A   Drizzle